Weather History for Clarksville, TN

Change the Weather History Date:

Sunday, January 8, 2012

  Actual Average Record
Temperature  
Mean Temperature 44 °F -  
Max Temperature 55 °F - 70 °F (1965)
Min Temperature 33 °F - -1 °F (1970)
Degree Days  
Heating Degree Days 21    
Month to date heating degree days 194  
Since 1 July heating degree days 1579  
Cooling Degree Days 0    
Month to date cooling degree days 0  
Moisture  
Dew Point 30 °F    
Average Humidity 58    
Maximum Humidity 82    
Minimum Humidity 41    
Precipitation  
Precipitation 0.00 in - 1.94 in (1978)
Month to date precipitation 0.00  
Sea Level Pressure  
Sea Level Pressure 30.20 in    
Wind  
Wind Speed 5 mph (ENE)    
Max Wind Speed 13 mph    
Max Gust Speed 16 mph    
Visibility 10 miles    
Events      
T = Trace of Precipitation, MM = Missing Value Source: NWS Daily Summary

Daily Weather History Graph

Daily Weather History Graph

Search for Another Location

Airport:

Trip Planner

Search our weather history database for the weather conditions in past years. The results will help you decide how hot, cold, wet, or windy it might be!

Date:

Astronomy

Jan. 08, 2012 Rise Set
Actual Time 7:02 AM CST 4:50 PM CST
Civil Twilight 6:33 AM CST 5:18 PM CST
Nautical Twilight 6:01 AM CST 5:50 PM CST
Astronomical Twilight 5:30 AM CST 6:22 PM CST
Moon 4:32 PM CST (1/8) 6:20 AM CST (1/8)
Length of Visible Light 10h 45m
Length of Day
9h 47m
Full, 100% of the Moon is Illuminated
Jan 8
Full
Jan 9
Full
Jan 16
Last Quarter
Jan 23
New
Jan 30
First Quarter

Hourly Weather History & Observations

Time (CST) Temp. Windchill Dew Point Humidity Pressure Visibility Wind Dir Wind Speed Gust Speed Precip Events Conditions
12:52 AM 37.0 °F - 27.0 °F 67% 30.19 in 10.0 mi Calm Calm - N/A   Clear
1:52 AM 34.0 °F 31.0 °F 27.0 °F 75% 30.19 in 10.0 mi NNE 3.5 mph - N/A   Partly Cloudy
2:52 AM 34.0 °F - 28.9 °F 82% 30.19 in 10.0 mi Calm Calm - N/A   Overcast
3:52 AM 37.9 °F 34.4 °F 28.9 °F 70% 30.19 in 10.0 mi NE 4.6 mph - N/A   Overcast
4:52 AM 36.0 °F 32.1 °F 28.0 °F 73% 30.19 in 10.0 mi NNE 4.6 mph - N/A   Clear
5:52 AM 35.1 °F 30.1 °F 28.0 °F 76% 30.20 in 10.0 mi NNE 5.8 mph - N/A   Scattered Clouds
7:52 AM 35.1 °F 31.0 °F 28.0 °F 76% 30.24 in 10.0 mi North 4.6 mph - N/A   Clear
8:52 AM 39.0 °F 34.8 °F 30.9 °F 73% 30.25 in 10.0 mi ENE 5.8 mph - N/A   Clear
9:52 AM 42.1 °F 38.4 °F 30.9 °F 65% 30.26 in 10.0 mi ENE 5.8 mph - N/A   Clear
10:52 AM 46.9 °F - 32.0 °F 56% 30.25 in 10.0 mi NE 8.1 mph - N/A   Mostly Cloudy
11:52 AM 50.0 °F - 33.1 °F 52% 30.21 in 10.0 mi East 9.2 mph - N/A   Clear
12:52 PM 53.1 °F - 30.9 °F 43% 30.19 in 10.0 mi East 10.4 mph - N/A   Clear
1:52 PM 54.0 °F - 30.0 °F 40% 30.19 in 10.0 mi ENE 11.5 mph - N/A   Clear
2:52 PM 54.0 °F - 30.0 °F 40% 30.19 in 10.0 mi ENE 6.9 mph - N/A   Mostly Cloudy
3:52 PM 53.1 °F - 30.0 °F 41% 30.19 in 10.0 mi NE 5.8 mph - N/A   Overcast
4:52 PM 51.1 °F - 30.0 °F 44% 30.20 in 10.0 mi Calm Calm - N/A   Overcast
5:52 PM 48.9 °F - 30.9 °F 50% 30.21 in 10.0 mi East 5.8 mph - N/A   Overcast
6:52 PM 48.9 °F - 32.0 °F 52% 30.21 in 10.0 mi ENE 5.8 mph - N/A   Overcast
7:52 PM 48.9 °F - 32.0 °F 52% 30.20 in 10.0 mi ENE 5.8 mph - N/A   Overcast
8:52 PM 48.0 °F - 32.0 °F 54% 30.19 in 10.0 mi East 9.2 mph - N/A   Overcast
9:52 PM 48.0 °F - 30.9 °F 52% 30.20 in 10.0 mi ENE 4.6 mph - N/A   Overcast
10:52 PM 46.9 °F - 32.0 °F 56% 30.17 in 10.0 mi East 5.8 mph - N/A   Overcast
11:52 PM 46.9 °F - 32.0 °F 56% 30.17 in 10.0 mi NE 3.5 mph - N/A   Overcast